Regional Weather Roundup
Issued by NWS Midland/Odessa, TX

Skip options and go directly to product.
Home | Oldest Version | Previous Version | Current Version | All | Text Only | Save Text | Print | Product List | Glossary Off

Skip product version selection by date and time.   

547
ASUS44 KMAF 021710
RWRMAF
MIDLAND AREA WEATHER ROUNDUP
NATIONAL WEATHER SERVICE MIDLAND TX
1200 PM CDT TUE SEP 02 2014

...IN SOUTHWEST TEXAS AND SOUTHEAST NEW MEXICO...

CITY           SKY/WX    TMP DP  RH WIND       PRES   REMARKS
ALPINE         SUNNY     90  55  30 SW3       30.13S
ANDREWS        FAIR      91  63  40 SW9G17    29.98S
ARTESIA        NOT AVBL
BIG SPRING     SUNNY     91  65  42 S15       29.98F
CARLSBAD       SUNNY     90  53  28 VRB3      29.97S
DRYDEN           N/A     93  67  42 SE9G17    29.94F
FORT STOCKTON  SUNNY     94  57  28 VRB5      29.96F
GUAD PASS      SUNNY     85  42  22 SW13      30.16S
HOBBS          SUNNY     88  57  35 S7        30.01S
MARFA          SUNNY     88  57  35 SW3       30.14S
MIDLAND AIRPK  NOT AVBL
MIDLAND INTL   SUNNY     89  66  46 S12       29.96F
ODESSA         SUNNY     89  63  41 S12       29.98S
PECOS          SUNNY     94  55  26 E3        29.92F
PRESIDIO       NOT AVBL
SEMINOLE       SUNNY     90  59  35 S6        30.00S
SNYDER         SUNNY     88  68  51 S15       29.97R
WINK           SUNNY     94  56  27 VRB3      29.93F
$$
...OTHER STATIONS IN TEXAS...

CITY           SKY/WX    TMP DP  RH WIND       PRES   REMARKS
ABILENE        SUNNY     90  68  48 S17G24    29.96S
AMARILLO       SUNNY     82  64  54 VRB3      30.04S
AUSTIN         PTSUNNY   90  71  53 S13       29.97S
BROWNSVILLE    MOSUNNY   90  76  63 E16       29.89S HX 101
CORPUS CHRISTI MOSUNNY   89  76  65 SE17G24   29.93F HX 100
DALLAS FTW     MOSUNNY   90  71  53 S14G21    29.99R
DEL RIO        MOSUNNY   88  70  55 SE12      29.93S
EL PASO        SUNNY     90  44  20 VRB3      30.02S
HOUSTON INT    MOSUNNY   91  73  55 S12       29.99S HX 100
LUBBOCK        MOSUNNY   89  61  38 SW12G17   30.00R
SAN ANGELO     SUNNY     89  68  49 S16       29.97S
SAN ANTONIO    MOSUNNY   90  71  53 SE10      29.97S
WACO           PTSUNNY   90  72  55 S10       29.98S
WICHITA FALLS  NOT AVBL
$$
...OTHER LOCATIONS IN NEW MEXICO...

CITY           SKY/WX    TMP DP  RH WIND       PRES   REMARKS
ALAMAGORDO     SUNNY     86  39  19 S7        30.06S
ALBUQUERQUE    MOSUNNY   80  37  21 CALM      30.17S
CANNON AFB     SUNNY     81  61  50 NE12      30.08S
CLOVIS           N/A     81  61  50 N12G20    30.10S
HOLLOMAN AFB   SUNNY     87  38  17 E2        30.03F
ROSWELL        SUNNY     86  45  23 N9        30.01F
RUIDOSO        SUNNY     82  36  18 N7        30.27S
SANTA FE       SUNNY     80  33  18 N6        30.23S
TRUTH OR CONSE SUNNY     87  39  18 VRB6      30.10F
TUCUMCARI      MOSUNNY   82  62  50 NE13      30.07F
$$

USA.gov is the U.S. government's official web portal to all federal, state and local government web resources and services.